CAPE
404 514 655 791 1102 1422 1646 1992 1782 1491 918 1452 1575 1904 2028 1884 1982 2027 2017 2092 2304 2362 2396 2545 2588 2709 2846 3012 2888 2956 2829 2730 2843 2945 2889 2965 3219 3384 3547 3466 3553 3658 3805 3659 3494 3479 3498 3435 3395 3384 3426 3527 3608 3700 3748 3622 3537 3423 3397 3171 3052 2928 2984 2832 2705 2366 2124 2002 1925 1785 1700 1736 1567 1456 1306 1178 944 1332 1220 1620 1505 836 1208 1378 1403
425 545 667 1116 1244 1461 1696 2006 1991 1825 1185 1322 1581 1959 1984 2096 2203 2244 2338 2326 2290 2380 2430 2602 2854 2935 2946 2934 2838 2817 2986 2925 2927 2856 3024 3244 3460 3586 3664 3653 3543 3682 3816 3637 3748 3814 3566 3436 3398 3368 3465 3598 3686 3492 3523 3466 3246 3218 3271 3235 3240 3142 2976 2834 2686 2154 2359 2449 2120 1996 1944 1795 1654 1414 1445 1410 1318 1396 1509 1510 1289 530 1170 1668 1342
504 637 708 1284 1263 1274 1582 1768 1912 1859 1078 1024 1491 1879 2177 2317 2258 2276 2149 2168 2311 2337 2294 2400 2463 2630 2785 2816 2807 2699 2768 2856 2882 2992 3219 3356 3475 3603 3651 3672 3690 3672 3367 3528 3725 3776 3604 3490 3416 3460 3395 3536 3478 3488 3486 3532 3364 3338 3312 3148 2997 3053 2994 2792 2360 2324 2318 2851 2782 2602 2232 1802 1680 1661 1500 1392 1351 1262 1274 1356 1336 1062 1586 1500 1388
578 660 858 1344 1334 1362 1635 1726 2118 2092 1810 1580 1927 2089 1974 2205 2279 2236 2259 2302 2471 2453 2498 2487 2356 2330 2356 2387 2417 2505 2648 2746 2966 3140 3236 3286 3476 3516 3544 3629 3652 3666 3602 3534 3510 3305 3206 3069 3136 3101 3418 3300 3348 3332 3245 2914 3567 3534 2954 2770 2822 2880 2940 2617 2092 1848 2099 2449 2287 2000 1680 1284 1450 1586 1518 1469 1368 1311 1317 1234 1186 1220 1260 1002 1137
643 782 1024 1239 1468 1512 1472 1716 2070 2237 2199 2002 1690 2046 2192 2241 2133 2286 2329 2452 2452 2482 2399 2376 2290 2196 2185 2151 2262 2561 2634 2919 2996 3046 3177 3239 3398 3545 3525 3494 3574 3517 3614 3616 3534 3154 2871 2899 3165 3392 3347 3231 3211 3214 3308 3550 3452 3454 3128 2732 2789 2690 2442 2143 1872 1596 1808 1983 2229 1986 1472 1406 1409 1535 1582 1502 1416 1288 1249 1148 1109 1416 1478 1332 1383
708 1060 1198 1269 1488 1630 1724 1519 1666 1995 1837 2194 1904 1747 1992 1996 2206 2198 2274 2401 2348 2402 2458 2429 2318 2252 2256 2182 2210 2538 2676 2888 3028 2959 2909 3074 3314 3443 3207 3198 3348 3349 3457 3425 2943 2727 2882 2766 3043 3131 3124 3191 3195 3227 3178 3011 2905 3102 3238 2875 2808 2495 2306 2136 1706 1552 1651 1846 1982 1790 1437 1180 1210 1220 1543 1524 1526 1395 1234 1067 1038 1114 1354 1359 1693
809 1168 1119 1431 1666 1756 1446 1530 1701 1851 1854 2034 2167 2096 2120 1854 2032 2130 2343 2494 2246 2208 2404 2381 2371 2335 2203 2099 2215 2239 2408 2632 2598 2642 2762 2917 3230 3098 3124 3361 3350 3400 3400 3261 2725 2548 2624 2708 2784 2829 3104 3174 3006 3022 2922 2752 2792 2899 2837 2876 2461 2448 2025 2103 1844 1614 1744 1926 2362 1627 1263 1163 1195 987 1267 1504 1616 1461 1257 1158 1180 1254 1329 1248 1317
816 971 1118 1487 1644 1622 1268 1284 1296 1732 2478 2038 1838 1836 1979 2186 2190 2270 2438 2339 2246 2289 2196 2228 2252 2113 1993 2083 2186 2270 2438 2550 2670 2693 2971 3019 3056 3076 3178 3354 3479 3418 3201 3004 2847 2893 2804 2794 2774 2590 2788 2812 2860 2690 2720 2982 2974 2994 2818 2994 2561 2230 2130 1930 2028 1730 1775 2414 2491 1998 1579 1236 1088 1046 1201 1476 1512 1522 1368 1378 1389 1306 1266 1223 1205
1019 1004 1021 1280 1556 1464 1515 1526 1242 1326 1710 1918 2086 1828 1733 1933 2107 2158 2484 2241 2265 2233 2145 2104 2155 2032 2076 2018 2078 2156 2408 2669 2807 2956 2945 2698 2705 2910 2964 3055 3354 3362 3284 3135 3036 3024 2929 2852 2691 2394 2564 2892 2918 2882 2764 2818 2855 2873 2946 2882 2730 2289 2139 2226 2086 1970 2294 2464 2544 2364 1800 1579 938 777 1046 1269 1536 1524 1531 1516 1467 1269 1124 1168 808
1123 930 1007 1433 1672 1630 1636 1526 1304 1411 1623 1693 1998 2042 2556 2443 2363 2131 2177 2108 2042 2058 2036 2086 2142 2150 1990 1899 1947 2220 2483 2678 2756 2742 2600 2548 2638 2748 2971 3070 3079 3068 3194 3091 2890 2822 2631 2954 2678 2561 2104 2417 2433 2710 2642 2447 2691 2879 3078 3063 3016 2429 2409 2078 2131 2011 2212 2699 2469 2228 1652 2264 1545 681 1113 1127 1477 1576 1664 1427 1222 1068 831 951 1142
1130 948 1158 1496 1612 1585 1915 1619 1520 1443 1745 2120 1914 2064 2610 2618 2220 2398 2178 2198 2103 2109 2082 2055 2030 2144 2208 2151 2302 2406 2434 2461 2564 2563 2577 2582 2698 2792 2888 2982 2840 2923 2917 2930 2930 3024 2922 2708 2486 2314 2235 2250 2237 2610 2474 1745 2300 2428 2706 2804 2950 2599 2620 2759 2489 2511 1978 2554 2054 2010 1627 2207 1624 1327 1260 973 1416 1358 1602 1514 1430 1274 1266 974 972
1232 1068 1400 1645 1736 1740 1384 1701 1811 1927 2011 1846 1641 1939 2437 2352 2220 2486 2398 2268 2226 2200 2054 2118 2194 2221 2292 2402 2425 2334 2369 2549 2616 2565 2558 2622 2715 2803 2734 2766 2784 2792 2886 2844 2924 2859 2815 2817 2650 2557 2255 2043 1966 2149 2187 1839 1766 1961 2466 2582 2564 2290 2329 2626 2861 2580 2069 2042 2100 1781 1694 2016 1932 1074 1078 1132 1053 1388 1094 1574 1370 1240 1291 1171 998
1246 1295 1198 1786 1739 1758 1984 2000 2132 2318 2144 1776 1514 1896 1811 2501 2440 2539 2487 2307 2306 2282 2185 2178 2271 2344 2419 2415 2400 2409 2527 2608 2552 2574 2688 2830 2796 2708 2650 2720 2802 2898 2878 2920 3034 3037 3101 2956 2946 2572 2570 2280 1740 1779 1852 1778 1708 1699 1816 2411 2348 2378 2458 2624 3362 3061 2490 2182 2163 1924 1784 2167 2312 2382 2166 1157 1118 1110 1317 874 1262 1404 1314 1217 1276
1380 1411 1630 1748 1808 2050 2095 2263 2316 2301 2130 2081 1867 1994 2128 2176 2405 2620 2505 2368 2295 2193 2238 2334 2332 2483 2479 2434 2505 2556 2635 2663 2624 2667 2660 2680 2603 2593 2661 2808 2872 2936 3004 2980 3035 2958 2886 2784 2788 2425 2143 1618 1506 1570 1892 1963 1924 1806 1493 1973 2252 2586 2574 2547 2498 3244 2746 2337 2176 2306 2106 2106 2270 2264 2620 1198 1300 1276 997 1217 796 1094 1246 1343 1276
1535 1668 1758 1815 1961 2154 2375 2388 2391 2500 2191 2238 2134 2074 2340 2590 2714 2611 2515 2280 2252 2210 2322 2410 2600 2600 2540 2612 2474 2502 2662 2730 2522 2585 2519 2594 2702 2664 2760 2880 2832 2668 2606 2596 2638 2694 2761 2636 2436 2324 1671 1604 1310 1394 1840 2130 1987 1980 1744 1437 1785 2517 2353 2675 3310 3206 2956 2644 2634 2461 2238 2092 2130 2086 2393 1258 1457 1453 1209 1413 1171 1260 1238 1310 1348
1734 1778 1982 1898 2025 2202 2728 2518 2590 2559 2518 2582 2434 2128 2463 2846 2717 2568 2415 2274 2223 2286 2385 2490 2649 2535 2676 2804 2676 2718 2742 2640 2494 2538 2616 2583 2615 2754 2592 2371 2644 2712 2762 2798 2822 2570 2669 2612 2645 2320 1779 1627 1296 1442 1482 1986 2055 1840 1792 1604 1791 2405 2172 2299 3091 3323 3096 3026 2754 2709 2450 2184 2160 2434 2560 1473 1644 1562 1537 1478 1445 1032 922 1153 908
1880 2086 2077 2057 2278 2231 2240 2560 2574 2444 2617 2800 2660 2476 2483 2510 2510 2538 2377 2355 2547 2823 2682 2857 2792 2772 2822 2854 2757 2820 2693 2668 2740 2594 2642 2660 2672 2515 2612 2711 2681 2917 3002 2968 3033 2908 2644 2787 2587 2155 1923 1473 1259 1090 1084 1590 1964 1816 1880 2055 1976 2240 2347 2490 2906 2790 3030 2962 2842 3012 2738 2686 2229 2341 2586 1785 1522 1614 1634 1678 1510 1248 883 871 1140
2034 2155 2303 2272 2351 2255 2010 2126 2514 2561 2446 2487 2546 2276 2670 2730 2702 2576 2535 2664 2986 2883 2780 2829 2799 2764 2798 2861 2842 2723 2736 2840 2868 2725 2819 2735 2651 2708 2765 2916 3027 3081 2832 2866 2858 2824 3066 3147 2734 2058 1787 1397 1521 1450 1395 1377 1554 1822 1854 2194 2158 2182 2306 2383 2826 2968 2993 2625 3166 2949 3088 2700 2327 2563 2725 1828 1558 1522 1130 1820 1441 1142 884 1123 1158
1934 2090 2313 2390 2417 2240 1844 2197 2403 2435 2563 2233 2076 1913 2366 2650 2547 2830 2874 2950 2954 2924 2899 2839 2924 2833 2844 2810 2870 2856 2806 2861 2836 2840 2730 2750 2815 2743 2868 2881 2777 2245 2252 2942 3206 3119 3282 2850 2582 2416 1389 1624 1586 1503 1608 1608 1884 2008 1864 2049 2257 2226 2468 2511 3005 3030 3006 2872 2619 3076 3034 2369 2318 2666 2783 1945 1587 1388 1478 1760 1631 1091 1459 1208 1246
2005 2162 2346 2756 2465 2505 2581 2448 2605 2654 2626 2464 2782 2431 2213 2528 2668 2717 2709 2795 2928 3026 2792 2580 2720 2916 2910 2900 2716 2667 2780 2784 2956 2764 2960 2834 2848 3010 3160 3016 2396 2162 2774 3148 2982 3297 3267 3124 2491 2171 1552 1730 2056 1910 2276 2258 2119 2196 1970 2157 2458 2391 2632 2760 2729 2907 2823 2755 2413 2714 2490 2155 2445 2598 2903 2259 1532 1474 1500 1700 1832 1592 1330 1212 980
1998 2156 2488 2774 2533 2514 2590 2573 2669 2702 2668 2690 2182 2627 2437 2488 2478 2850 2726 2694 2968 2990 2937 2694 2819 2765 2772 2629 2642 2746 2946 3124 2934 2910 2858 2924 3208 2898 2897 2804 2505 2789 2940 3120 3099 3480 3524 3044 2846 2199 1920 2254 2299 2422 2476 2637 2658 2391 2270 2330 2110 2460 2298 2478 2660 2746 2859 2922 2627 2738 2284 1914 2334 2552 2860 2759 1545 1488 1578 1624 1747 1692 1343 1383 1231
1936 2002 2296 2499 2350 2608 2720 2710 2746 2882 2981 2908 2794 2741 2737 2727 2822 2928 2803 2904 2880 3005 3008 2790 2632 2734 2771 2861 2868 2851 2971 3072 3039 2970 2986 2930 2444 2982 2758 2376 2529 2935 3222 3382 3436 3150 2694 3107 3036 2716 2566 2668 2724 2472 2546 2350 1875 1956 1892 1824 2356 2284 2250 2360 2372 2376 2357 2584 2577 2577 2244 2411 2488 2720 2595 2787 1913 1314 1640 1704 1726 1731 1653 1501 1354
1636 1868 1983 2279 2185 2230 2472 2723 2974 3004 3289 3122 3000 3055 3122 3540 2934 2850 2904 2625 2720 2828 2698 2915 3048 3104 2943 2924 3076 2879 3058 3151 3290 2773 2643 2787 2514 2544 2544 2654 3118 3349 3014 2824 2471 1734 1546 1891 2187 1816 1852 2520 2378 2238 2030 2099 2146 1742 1833 1959 1979 2078 2260 2360 2346 2205 2162 2257 2117 2397 2258 2450 2604 2367 2430 2730 2438 1652 1835 1713 1689 1763 1681 1460 1392
1585 1734 1958 2241 2212 2247 2319 2384 2657 3113 3388 3243 3220 3411 3338 3262 3238 2889 2786 2901 2901 2831 2901 2997 3096 3044 2862 2981 2980 3256 3144 3286 2926 2644 2646 2503 2700 2708 2596 2545 2501 2420 2044 2177 1594 918 613 916 1078 1178 1618 1626 1611 1738 1788 1961 1852 1826 2077 2007 1970 1896 2124 2211 1986 2051 2054 2001 2191 1977 1906 1945 1988 2378 2357 2272 2392 1862 1918 1766 1526 1770 1797 1703 1456
1557 1762 1740 2146 2290 2219 2385 2394 2640 2723 2864 3590 3436 3321 3401 2940 3193 3180 3123 3057 2852 2685 2666 2842 2922 3061 3022 2930 2880 3042 2924 2798 2850 2845 2360 2602 2206 2274 2494 2720 2736 2630 1494 1791 1136 1050 683 786 916 1298 1501 1430 1269 1475 1744 1838 2088 1841 1700 1730 1854 1926 2020 2042 1719 1876 1988 1897 1971 1529 1780 2020 1965 1857 2441 2332 2550 2257 2057 1624 1218 1419 1715 1797 1764
1424 1643 1656 1920 2136 2158 2239 2364 2417 2654 2677 2578 3112 3002 3225 2960 3108 3389 3174 2987 2946 2770 2718 2805 2856 3001 3108 2788 2900 2964 3146 2928 3068 3112 3043 3090 2668 2294 2672 2890 2608 2370 1856 1605 1235 920 630 646 927 1078 1215 1180 1127 1147 1280 1495 1247 1360 1380 1603 1748 1882 1836 1780 1676 1654 1945 2047 2026 1350 1535 1827 2054 2026 2050 2440 2300 2532 2034 1633 1461 1474 1703 1840 1856
1456 1526 1786 1955 2076 2218 2248 2336 2251 2420 2719 2949 3383 3322 3430 3185 2986 3302 2975 2823 2726 2583 2647 2714 2983 3215 3178 3098 2869 2780 2764 2774 2822 3128 3074 2792 2399 2656 2726 2802 2384 2116 1732 1358 1110 868 622 808 940 1284 1335 1128 993 1110 1219 1129 1379 1214 1271 1334 1434 1788 1879 1838 1766 2003 2021 2156 2090 1476 1453 1596 1723 1966 2259 2497 2364 2381 2213 1652 1482 1454 1532 1728 1859
1534 1585 1766 1892 2256 2048 2217 2179 2156 2262 2564 2769 2904 2728 3414 3491 3113 3266 3053 2781 2746 2435 2397 2505 3090 3203 3384 3220 3178 2819 2678 2663 2727 2861 2880 2688 2375 2459 2478 2391 2127 1806 1460 1118 692 685 754 898 1115 1500 1461 1407 1025 1080 979 1176 1218 1366 1161 1186 1311 1566 1790 1618 1563 1686 1521 1885 1981 1949 1452 1631 1720 1956 2262 2481 2566 2394 2064 1904 1747 1616 1642 1715 1804
1679 1698 1788 1970 2345 2366 2290 2119 2144 2224 2372 2670 2753 3240 3556 3490 3552 3504 3073 3136 2844 2658 2551 2604 2672 2954 3186 3402 3338 2788 2548 2492 2670 2697 2802 2562 2419 2310 2131 2240 1998 1680 1315 1007 850 1075 1226 1175 1280 1375 1379 1136 993 1046 994 865 1058 1064 965 931 981 1426 1504 1454 1391 1305 1226 1460 1847 1828 1576 1699 1880 1962 2246 2414 2481 2342 2261 2123 1766 1630 1752 1762 1914
1756 1917 2024 2261 2266 2496 2331 2207 2051 2236 2312 2333 2651 2860 3521 3707 3783 3505 3566 4014 3134 2947 2926 2632 2484 2638 2888 3255 3119 2948 2675 2618 2414 2571 2487 2276 2362 2205 2070 2024 1946 1707 1226 1123 1130 1340 1465 1548 1430 1308 1142 1126 1029 904 689 774 660 522 910 775 927 994 1170 1277 1308 1402 1408 1401 1672 1958 1686 1632 2008 2098 2222 2430 2443 2079 2162 2114 1840 1636 1826 1988 2019
1939 1882 1880 2152 2384 2601 2401 2330 2273 2414 2393 2370 2481 2674 2910 2848 2956 3189 3596 3930 3600 3744 3036 3005 2738 2431 2682 3546 3633 3422 2890 2726 2170 2335 2276 2288 2252 2248 2174 2232 1986 1713 1431 1068 1195 1315 1423 1400 1450 1271 1210 1061 981 668 538 552 504 637 810 1002 992 1104 1146 1179 1009 1030 1043 1219 1456 1653 1566 1608 2073 2373 2312 2291 2361 2259 2160 2242 2173 2039 1931 2151 1874
2004 2114 2068 2298 2248 2457 2387 2432 2332 2471 2424 2285 2523 2586 2530 2585 2599 2886 3192 3558 3830 3862 3259 2976 2772 2692 3115 3456 3482 3307 3039 2808 2747 2534 2249 2292 2300 2235 2458 2417 2355 1843 1521 1191 1212 1353 1464 1408 1434 1380 1044 938 632 723 648 466 392 384 692 829 860 844 842 815 580 551 694 871 1462 1377 1523 1452 2037 2137 2232 2259 2420 2336 2251 1958 2247 2213 2198 2114 2094
1879 2009 2218 2466 2132 2476 2461 2556 2280 2576 2463 2325 2360 2508 2608 2707 2742 2812 3038 3192 3336 3280 3042 2746 2780 2720 2723 2992 3172 3108 3048 2858 2976 2627 2377 2338 2294 2525 2390 2330 2188 1902 1621 1534 1615 1666 1482 1249 1119 974 853 862 690 694 760 328 307 430 439 420 486 538 619 654 556 398 484 528 932 1494 1564 1633 1796 1898 1812 1961 2098 2383 2297 2252 2143 2076 2154 2231 2108
2175 2310 2465 2491 2289 2378 2668 2702 2585 2609 2655 2511 2562 2592 2766 2650 2751 3001 3082 3272 3205 3259 3168 3203 3069 2627 2718 2853 3101 3058 2909 3033 3065 2998 2698 2642 2644 2579 2447 2359 2187 2042 1907 2130 1838 1733 1463 1140 1031 922 761 713 612 645 557 504 440 599 422 569 685 785 836 630 591 700 820 760 1158 1505 1489 1615 1856 1800 1706 1609 1795 2094 2321 2221 1951 2061 2124 2226 2122
2315 2348 2387 2656 2807 2817 2910 2842 2972 2786 2762 2578 2758 2660 2755 2643 2782 3082 3199 3295 3282 3291 3265 3342 3016 2782 2743 2852 2930 3193 3250 3126 2935 2873 2768 2759 2811 2749 2437 2075 1978 1988 2034 2126 2022 1871 1203 1167 1095 954 942 848 701 784 808 720 690 785 894 857 829 844 916 660 830 905 1014 1179 1489 1321 1594 1735 1844 1924 1737 1776 1598 1675 1878 2196 2306 2200 2214 2322 2281
2504 2614 2667 2774 2812 3046 3277 2914 2937 2863 2879 2911 2896 2891 3040 3038 2930 3036 3255 3354 3516 3492 3613 3438 3178 3011 3030 3086 2978 2964 2784 2679 2546 2457 2375 2277 2306 2362 2082 1721 1709 1890 2020 2043 1650 1394 1297 1230 1071 912 1105 1146 1174 948 818 968 862 884 953 882 879 968 937 909 947 905 855 1149 1172 1369 1587 1876 2044 1931 1739 1722 1776 1735 1570 1653 1840 2072 2165 2202 2267
2716 2820 2922 2993 2956 3044 3356 3071 2933 2990 2904 2948 3051 3078 3114 2903 2958 2918 3010 3200 3008 3126 3277 2987 2702 2726 3130 3019 2949 2706 2682 2764 2768 2432 2250 2324 2078 1912 2000 1710 1722 1613 1318 1230 1502 1229 1129 1005 1266 1196 1234 1190 986 978 876 781 834 990 962 912 857 1030 967 981 898 950 1138 1136 1216 932 1291 1662 1904 1601 1751 1677 1847 1641 1676 1518 1642 1816 1952 2098 2191
2854 2860 2941 3180 3175 3148 3258 3348 3244 3161 3204 3098 3195 3138 3001 2867 2868 2886 3285 3357 3182 3202 3118 2596 2470 2320 2442 2615 2980 2822 2884 2890 2712 2631 2455 2328 2104 1953 1679 1586 1556 1592 1444 1385 1284 1088 990 984 1083 979 832 896 810 756 722 591 568 719 741 844 936 784 990 939 1050 1151 1032 976 1076 1279 1365 1638 1521 1627 1618 1637 1600 1936 1795 1629 1582 1668 1874 2013 2050
2868 2974 2992 3202 3280 3375 3487 3652 3533 3380 3410 3316 3300 3180 3176 3152 3100 3268 3290 3468 3312 2850 2520 2302 2115 1951 2194 2511 2449 2566 2512 2451 2442 2314 2138 1829 1583 1574 1361 1544 1615 1583 1542 1075 1104 953 902 878 865 908 649 642 667 609 560 588 658 735 818 895 918 1009 884 874 962 969 875 606 584 731 818 1368 1425 1780 2212 1948 1943 1930 1915 2068 2085 2160 1941 1956 2117
2939 3116 3263 3330 3435 3523 3524 3650 3589 3372 3454 3341 3114 3012 3286 3132 2925 2891 2776 2841 3030 2446 2238 2197 2081 2122 2200 2311 2330 2192 2176 2067 2102 2174 1615 1644 1715 1772 1596 1371 1478 1529 1370 1131 964 1003 1031 975 942 873 1068 876 642 573 644 667 573 823 890 890 812 823 972 758 826 818 585 204 237 372 363 510 836 1066 1250 1558 1558 1842 1848 1979 2076 2001 1938 1720 1527
3007 3204 3381 3355 3483 3506 3576 3615 3542 3554 3418 3089 2842 2942 2964 2868 2878 2723 2662 2893 3063 2955 2453 2168 2186 2290 2292 2278 2054 1888 1823 1960 2014 1920 1758 1600 1358 1757 1746 1613 1494 1370 1231 1050 1075 1052 842 870 901 924 1026 738 581 613 604 552 594 795 960 730 543 670 657 702 646 566 277 90 68 144 194 212 313 379 517 682 730 923 1060 1194 1258 1375 1578 1933 1427
2927 3118 3238 3360 3531 3556 3670 3693 3798 3637 3386 3387 3157 3107 3070 2913 2754 2671 2734 2803 3005 2736 2705 2361 2512 2617 2385 2276 1926 1853 1882 1991 2042 1998 1987 1678 1728 1508 1686 1533 1259 951 1074 1123 1036 792 875 686 618 626 643 597 598 589 692 707 620 491 543 541 451 603 670 469 471 482 138 14 18 23 100 56 107 205 306 360 374 437 566 810 950 870 1002 1144 1306
2742 2941 3178 3359 3539 3646 3710 3805 3897 3806 3589 3522 3496 3340 3354 3442 3307 3232 3084 2899 2872 2984 2742 2488 2583 2647 2497 2371 1882 1848 1826 1906 1711 1417 1623 1486 1594 1774 1655 1317 1006 1151 1331 1046 1062 803 612 644 742 624 670 651 663 718 820 798 446 444 373 582 310 362 508 412 278 390 55 0 0 0 0 0 37 220 396 163 154 315 301 411 553 783 856 824 889
2464 2736 3024 3301 3512 3614 3699 3781 3872 3781 3736 3778 3668 3829 3874 3877 3650 3468 3038 2794 2516 2447 2542 2516 2487 2312 2174 1940 1857 1598 1538 1509 1362 1506 1601 1604 1742 1836 1825 1341 1135 1172 1199 956 997 792 834 809 804 781 742 516 466 508 634 611 590 606 321 251 381 221 71 172 297 222 100 8 0 0 0 0 0 143 165 56 88 264 241 230 370 549 623 675 687
2288 2508 2860 3091 3362 3538 3724 3760 3756 3714 3722 3718 3760 3846 3661 3268 2998 2936 2774 2530 2362 2241 2318 2288 2292 2267 1996 1928 1570 1579 1530 1435 1452 1461 1540 1780 1651 1818 1797 1662 1418 1280 1018 970 1068 940 1010 1068 981 889 787 694 468 408 578 696 689 702 620 382 288 268 165 307 144 161 74 17 0 0 0 0 0 50 124 113 169 139 95 74 222 240 374 466 518
2092 2330 2631 2876 3227 3382 3617 3750 3684 3705 3652 3704 3806 3662 3167 3000 2910 2776 2738 2621 2496 2260 2081 2177 2118 2199 2090 2042 2037 1734 1648 1752 1754 1626 1823 1756 1732 1528 1618 1788 1483 1298 1308 1224 1188 1109 1086 986 1001 961 840 840 666 256 393 541 622 634 679 646 795 533 394 415 213 227 32 0 0 0 0 0 0 29 60 9 24 31 10 1 46 34 44 58 94
2036 2225 2484 2760 3115 3304 3539 3651 3612 3613 3596 3711 3786 3155 2980 3090 2901 2878 2760 2663 2633 2432 2623 2796 2841 2766 2653 2410 2046 2108 1844 1819 1744 1869 1824 1764 1660 1461 1473 1556 1436 1473 1467 1356 1205 1055 967 956 896 888 897 856 686 519 392 264 371 574 627 654 606 592 468 323 235 2 0 11 0 0 0 0 0 0 0 0 0 0 0 2 1 0 1 0 0
1957 2152 2360 2620 3100 3306 3480 3529 3548 3508 3600 3714 3705 3089 2928 3049 2988 2910 3043 3234 3051 3193 3066 3020 2976 2940 2634 2251 2050 2153 2089 1681 1959 1927 1954 1915 1852 1886 1543 1652 1461 1520 1485 1344 1292 1200 1134 976 970 668 822 850 747 616 472 342 382 351 620 528 522 461 440 158 113 16 2 4 92 15 0 0 0 0 0 0 0 0 0 0 0 0 0 0 0
1856 2186 2291 2489 2871 3150 3375 3498 3557 3593 3688 3700 3720 3354 3124 3066 2965 3109 3138 3228 3212 3240 3159 2874 2827 2475 1988 2064 1986 1996 2117 1766 1851 2068 2073 2122 2019 1864 1653 1654 1653 1510 1578 1410 1180 1174 1246 1095 1057 854 786 722 710 611 578 513 469 400 461 424 332 292 145 121 196 181 186 15 0 0 0 3 4 0 0 0 0 0 0 0 0 0 0 0 0
1901 2235 2264 2467 2704 2989 3274 3446 3462 3536 3697 3779 3687 3494 2992 2966 3094 3414 3400 3430 3239 3177 2961 2660 2664 2288 1810 1687 1791 1933 1909 1887 1835 2157 2131 2112 2030 1794 1740 1632 1309 878 1062 704 750 806 811 722 646 612 870 897 766 751 610 664 578 376 392 399 250 141 112 144 117 228 266 126 3 0 0 0 0 0 0 0 0 0 0 0 0 0 0 0 0
2012 2194 2248 2377 2559 2840 3124 3308 3398 3474 3673 3853 3620 3400 3114 3032 2959 3485 3473 3503 3440 3201 2645 2543 2374 2034 1752 1746 1714 1854 1808 1820 1938 2107 2093 2090 2056 1816 1702 1250 1002 1051 996 791 615 470 453 448 358 537 631 652 835 743 693 745 705 504 452 426 368 230 310 163 204 207 160 81 43 0 0 0 0 0 0 0 0 0 0 0 0 0 0 0 0
Wind_Speed
23 20 20 20 18 17 16 16 16 17 14 11 10 9 10 11 12 11 10 10 9 10 11 11 11 10 9 9 8 8 8 8 8 9 10 9 7 5 4 4 3 3 3 4 5 5 4 3 2 1 2 3 3 4 4 4 4 5 6 8 8 6 6 5 4 3 2 1 2 3 5 6 6 6 6 6 6 5 4 4 5 6 6 4 4
18 18 18 17 16 15 14 14 13 14 14 12 11 11 12 13 13 12 12 11 10 11 12 12 11 10 9 9 7 7 8 8 8 9 9 8 6 4 3 3 3 2 2 4 5 5 3 2 2 1 1 2 2 2 3 3 3 3 4 6 8 7 6 6 6 5 3 2 3 5 6 6 6 6 6 6 7 6 5 6 8 8 7 7 7
13 14 14 15 15 15 14 13 12 13 13 13 12 12 13 13 13 12 12 11 10 11 11 11 10 9 8 7 7 7 7 7 7 8 8 7 5 4 3 3 3 2 3 4 4 3 2 1 2 0 2 3 3 2 2 3 4 4 4 6 7 8 7 7 8 7 6 5 5 6 7 7 6 5 6 6 7 7 6 6 8 8 6 2 3
11 12 13 14 15 13 13 14 13 13 13 13 12 12 13 13 12 11 12 11 10 10 9 9 8 7 7 6 6 6 6 6 7 7 6 6 4 3 3 3 2 2 3 3 3 2 0 1 1 1 3 5 5 5 5 6 6 6 6 8 9 9 9 8 10 12 11 8 7 8 9 9 7 5 5 5 6 7 8 8 8 6 4 5 3
8 10 12 14 13 11 11 13 13 12 12 12 11 11 12 12 12 11 10 9 8 7 7 7 7 6 6 5 5 5 5 5 6 5 5 4 3 2 2 1 1 2 2 2 2 0 2 2 2 3 4 5 7 8 7 8 8 8 6 8 10 10 9 8 11 13 16 11 9 10 9 8 9 4 4 4 6 7 7 7 6 4 2 2 2
7 9 11 13 12 11 11 13 13 12 11 10 10 10 10 11 11 10 9 7 6 5 5 5 5 5 5 4 4 4 4 5 5 4 4 3 2 2 2 2 2 1 2 2 1 1 3 3 2 2 4 6 7 8 10 10 10 10 9 6 8 12 11 8 5 6 10 14 11 11 9 8 8 6 4 3 5 6 6 7 7 6 5 2 3
5 8 10 12 11 11 11 12 14 15 11 10 10 10 10 10 9 8 7 5 4 4 4 4 5 5 4 3 3 3 3 4 3 4 3 2 2 2 1 2 1 2 2 2 1 3 4 3 2 3 4 4 6 9 10 10 10 10 10 8 8 12 13 8 6 5 6 13 9 11 9 7 7 7 3 4 5 6 6 6 7 7 6 4 2
6 7 9 11 11 11 9 10 11 14 10 11 10 9 9 8 8 6 4 3 4 4 4 5 4 4 3 3 3 3 3 3 4 3 3 2 2 2 1 1 1 2 2 2 0 3 4 3 3 3 4 5 6 7 8 8 8 8 8 8 7 8 11 13 8 6 7 9 9 10 9 7 7 6 2 3 4 5 6 6 6 7 5 5 5
5 7 9 9 10 11 13 9 8 9 12 9 8 6 6 6 5 5 3 4 4 5 5 5 4 4 4 4 4 4 4 4 4 3 2 2 2 2 1 1 0 1 1 1 2 4 4 4 3 3 3 5 5 5 5 7 7 7 7 7 6 5 8 13 12 9 8 8 9 8 8 7 7 6 2 2 3 5 5 5 5 6 5 5 6
4 7 9 9 9 11 8 8 9 12 12 8 6 6 5 5 6 6 4 7 8 7 7 6 6 6 6 6 6 5 5 4 3 2 1 1 1 1 1 1 1 1 1 2 2 4 5 5 5 6 5 5 5 3 5 6 6 8 8 7 7 5 5 14 14 10 9 8 9 9 7 9 7 6 3 3 1 3 5 7 8 7 7 6 7
3 6 8 9 8 9 9 11 15 15 11 5 4 7 7 6 7 7 9 9 8 7 7 7 8 8 8 7 6 5 4 3 2 1 1 1 2 2 3 3 2 2 1 1 1 3 4 5 5 6 7 8 4 4 4 7 7 9 9 8 7 6 7 13 14 10 9 9 9 10 7 6 7 5 2 3 2 2 4 6 6 5 5 6 6
4 6 8 8 7 9 10 11 10 8 6 6 4 7 7 9 9 11 9 8 7 7 8 9 9 9 8 7 6 4 3 2 2 2 2 2 2 3 3 3 2 1 1 1 2 2 4 5 6 7 9 10 10 6 4 6 8 9 9 7 7 7 9 11 12 9 7 7 7 8 7 7 6 1 3 3 3 3 4 5 5 4 5 6 6
4 6 6 6 6 6 7 7 8 8 10 11 13 12 10 10 11 10 9 9 9 9 9 10 10 9 8 7 6 4 3 3 2 2 2 3 3 3 2 1 1 2 2 2 3 4 5 6 6 7 9 10 10 9 6 5 6 10 11 10 9 9 8 12 8 7 6 5 5 4 4 4 5 3 6 2 3 4 4 5 8 4 4 5 6
3 4 5 5 6 8 8 9 11 12 13 14 12 10 11 11 11 10 11 11 10 11 11 11 11 10 8 6 5 3 3 3 2 2 3 2 2 2 1 2 2 3 4 3 3 3 5 7 7 8 13 13 8 8 9 4 5 7 9 11 13 12 11 9 7 6 6 6 5 5 2 1 1 3 5 3 3 3 3 7 9 8 5 4 6
3 4 4 5 6 8 11 11 12 13 14 14 15 16 12 10 11 12 12 12 12 12 12 12 11 10 7 6 4 4 3 2 2 2 2 2 1 1 1 1 2 2 2 2 3 3 4 5 7 10 14 2 5 7 10 8 3 6 8 10 11 13 12 8 8 7 6 6 7 6 3 1 4 3 3 4 4 2 2 2 3 10 5 4 5
4 4 4 5 7 8 10 12 13 13 12 11 12 12 12 11 12 13 14 14 13 13 13 13 11 9 8 6 4 4 4 4 3 2 2 2 1 1 1 1 1 1 2 1 3 3 3 4 4 11 5 2 2 6 8 12 7 3 5 8 11 12 12 11 10 9 7 6 7 7 5 3 5 3 3 4 5 3 1 2 4 6 8 4 4
5 6 6 6 7 7 8 10 10 12 10 8 8 10 10 12 13 14 14 13 13 13 13 12 11 10 10 8 6 5 5 5 5 4 4 4 3 2 3 2 2 3 4 4 3 2 1 1 2 12 2 3 4 2 4 7 9 9 5 7 9 10 11 10 8 9 9 8 7 8 7 5 6 3 2 3 4 3 2 2 1 6 10 5 3
6 6 6 7 6 5 6 6 7 8 7 6 7 10 10 11 13 13 14 13 13 12 12 12 12 11 11 9 8 7 6 6 5 5 6 6 6 5 5 4 3 4 5 5 3 3 2 0 2 11 4 2 4 2 2 4 5 6 6 9 9 9 9 8 7 9 9 8 8 8 7 9 7 4 2 2 3 3 2 2 0 1 2 7 3
5 5 6 5 4 3 3 3 5 6 6 6 8 12 14 14 15 15 14 13 13 12 13 13 12 12 11 11 11 9 8 6 6 6 6 7 7 7 5 6 6 6 5 5 4 3 2 0 4 14 7 2 3 1 1 3 5 2 3 6 9 9 8 7 8 8 8 8 10 9 9 9 5 5 3 1 1 1 2 3 1 0 2 2 3
3 4 4 3 4 4 3 4 5 6 6 7 9 11 13 15 15 15 14 14 13 13 14 14 14 14 13 13 13 12 11 9 8 8 7 7 8 8 7 8 8 8 7 6 4 3 4 2 8 18 6 7 7 5 5 6 4 1 3 3 7 8 8 9 9 9 8 9 9 10 13 8 7 6 4 3 3 2 3 3 3 1 1 1 1
0 3 4 3 5 5 5 5 5 6 7 8 10 12 12 15 14 14 14 14 14 14 14 15 15 15 14 14 13 13 12 11 10 9 8 8 7 10 12 10 10 9 8 7 5 4 2 3 8 18 14 7 10 13 9 7 6 5 5 6 5 5 7 9 9 9 9 9 9 9 14 9 9 9 5 4 4 5 4 3 4 4 1 2 1
3 3 4 5 5 5 6 6 6 6 7 8 10 11 13 15 15 15 15 15 15 15 15 14 14 14 14 14 14 13 13 12 11 10 10 11 13 12 13 13 12 11 8 6 4 2 3 1 3 7 10 9 5 5 6 7 7 7 7 5 6 8 8 8 10 10 9 9 10 11 10 8 9 10 7 4 4 6 6 5 5 6 4 2 2
5 5 5 6 6 6 6 7 7 6 7 9 10 11 12 12 13 15 14 16 15 15 14 13 13 14 14 14 14 14 14 13 13 12 13 14 16 14 15 15 13 10 9 9 7 4 3 2 1 3 6 9 8 7 6 6 6 6 5 5 6 7 7 9 10 10 9 9 8 13 9 10 10 11 10 6 5 6 7 9 6 7 8 5 3
7 6 5 6 6 7 7 8 8 8 8 9 10 11 12 13 14 14 14 14 14 13 13 13 13 14 14 14 14 14 15 14 14 16 17 16 15 14 15 16 15 13 10 11 9 6 5 5 4 5 8 9 9 9 9 9 8 6 5 4 4 5 6 8 9 10 9 10 10 12 9 10 11 10 9 8 6 6 8 10 11 7 8 9 6
7 6 6 7 7 8 8 9 9 9 11 9 11 11 11 13 13 14 14 14 14 13 13 13 13 14 14 14 14 14 14 14 14 14 15 14 15 14 14 14 13 13 9 11 10 8 8 7 7 8 9 10 10 11 11 10 10 8 6 4 4 4 4 6 8 10 11 12 13 12 10 10 10 10 9 9 8 8 10 16 11 10 6 8 8
6 8 8 7 9 9 10 9 10 11 10 11 11 10 10 12 12 14 14 14 14 14 13 13 13 14 14 13 13 13 13 13 13 14 13 13 15 15 14 14 14 13 11 11 10 9 9 8 8 8 10 11 11 11 10 10 9 9 8 6 5 3 4 5 6 8 10 11 12 12 11 10 10 9 8 8 9 9 13 19 14 12 9 6 7
7 8 7 7 8 9 10 10 10 11 12 10 10 10 11 11 12 13 14 15 15 15 14 14 14 14 14 13 12 12 12 13 13 13 14 13 15 15 14 14 14 13 11 12 11 10 9 9 9 9 10 10 10 10 10 10 10 10 10 9 8 7 5 4 4 5 6 7 8 9 9 10 9 8 7 6 8 10 17 19 15 14 12 10 7
7 8 7 7 7 9 9 10 10 11 11 12 12 11 10 11 12 12 14 14 14 15 14 13 13 13 14 13 13 12 12 13 14 14 14 14 15 15 14 13 13 13 12 12 12 11 11 11 10 10 9 9 9 8 8 9 9 10 10 10 10 9 8 6 5 4 4 7 7 10 6 7 8 7 6 6 8 13 15 15 16 16 15 13 11
6 6 6 7 7 6 8 11 12 13 11 12 13 11 10 10 10 11 13 13 14 14 13 12 12 12 13 14 13 13 13 14 15 14 13 14 14 14 13 13 13 14 13 13 12 13 13 12 11 11 10 9 10 9 9 9 10 11 11 11 10 10 9 8 5 5 6 8 9 11 8 5 6 7 8 8 10 11 12 14 15 16 16 13 10
7 6 6 7 7 6 8 11 12 12 11 12 12 12 10 10 10 11 11 11 13 12 12 11 12 12 13 14 15 15 15 14 14 13 13 14 14 13 13 13 13 13 13 13 13 13 13 12 11 11 11 11 11 10 11 11 12 13 13 13 13 12 12 10 8 7 6 8 9 9 10 5 6 8 10 9 10 9 9 10 13 14 14 10 9
6 7 7 7 6 7 8 9 10 11 10 11 12 12 12 12 12 11 11 11 12 11 12 12 12 12 13 13 14 15 14 14 13 12 11 12 12 12 12 11 12 11 11 12 12 12 12 10 11 11 11 11 11 11 12 13 13 14 14 14 14 15 14 13 12 11 9 8 8 8 7 7 6 7 9 10 10 11 9 9 11 11 10 8 10
7 7 7 7 8 9 9 8 9 9 11 11 11 12 12 12 12 11 10 11 10 11 12 12 13 12 12 12 12 12 13 12 11 11 11 11 11 12 11 10 10 10 10 11 11 11 10 10 10 10 10 11 11 11 12 12 12 12 13 12 12 13 14 14 14 12 12 10 10 9 9 7 7 7 7 9 9 9 11 9 9 9 8 7 9
8 8 7 7 9 9 8 8 8 8 10 12 10 10 11 10 10 10 9 9 10 11 11 11 11 12 12 12 11 11 11 11 10 10 10 10 11 11 11 10 10 10 10 11 11 10 10 10 10 10 10 10 11 11 12 12 11 11 11 10 11 11 12 13 13 13 12 12 12 12 11 10 8 7 8 8 8 9 11 11 10 9 8 7 7
7 7 7 8 8 7 7 6 7 8 10 9 8 8 9 8 7 8 9 9 9 10 10 9 9 11 11 12 11 11 11 10 11 11 10 10 10 10 10 10 9 9 10 10 11 10 10 9 9 10 10 10 10 11 10 10 11 12 11 11 12 11 11 12 11 11 12 12 13 14 14 14 13 10 9 9 9 8 10 13 11 8 8 8 7
6 5 8 8 7 6 5 5 7 9 9 9 8 8 8 6 6 6 7 8 8 9 9 8 9 10 10 9 10 9 9 9 10 10 11 11 10 10 10 8 7 9 10 10 11 11 11 10 10 10 11 12 12 12 11 11 11 11 11 12 12 12 13 12 12 12 12 12 14 15 16 16 15 14 13 11 11 11 10 8 9 9 8 8 8
6 4 4 5 7 6 5 6 7 9 8 8 7 7 7 5 4 5 6 7 7 8 7 8 8 9 9 8 9 10 10 12 12 12 12 12 11 11 10 9 9 10 10 10 11 11 10 10 11 11 11 11 11 11 12 12 11 11 12 13 13 12 13 13 13 13 13 13 14 15 16 17 16 15 14 14 13 12 11 8 7 8 8 7 8
5 3 3 4 5 6 6 7 7 7 8 8 7 7 5 4 5 5 8 8 7 7 7 5 2 7 7 8 9 10 11 13 14 14 14 13 13 13 12 11 11 12 11 11 11 10 10 10 11 10 10 11 10 9 11 12 11 12 12 12 13 13 13 14 14 14 14 14 14 14 15 16 16 16 15 15 14 14 17 14 8 9 10 9 8
5 5 4 3 4 4 5 5 5 5 4 5 6 5 4 6 5 6 7 6 6 6 5 4 7 8 9 11 11 11 11 13 14 14 14 14 14 13 14 14 14 13 12 12 11 11 11 11 10 11 10 10 10 9 10 11 11 12 13 13 13 15 15 15 15 15 15 15 15 14 14 14 14 13 12 12 13 14 14 16 15 12 11 11 11
4 6 5 4 2 2 1 2 3 4 4 4 4 5 4 4 5 5 6 5 3 5 6 6 8 10 12 12 11 11 12 13 14 15 15 14 14 14 14 15 15 14 13 13 13 13 12 13 11 12 11 11 11 11 11 11 12 12 13 13 14 15 17 17 17 17 16 16 15 15 15 14 15 15 13 12 12 13 13 13 13 12 13 15 11
4 5 6 5 4 4 2 1 2 4 3 3 3 3 4 4 6 7 7 6 5 5 5 6 7 10 11 11 10 11 11 12 13 14 13 14 15 15 15 15 14 14 14 13 13 13 13 13 13 12 11 12 14 13 12 11 11 11 13 14 15 16 18 18 19 19 18 17 16 15 16 17 16 15 15 14 12 12 12 11 11 11 10 13 12
5 7 8 8 6 5 4 3 3 4 3 3 4 4 6 5 7 8 8 7 6 5 5 5 6 9 11 11 11 10 11 11 12 13 14 13 13 14 15 15 14 15 15 14 13 12 13 13 12 11 10 10 12 14 13 12 11 12 14 14 17 19 21 20 19 20 19 nan nan 17 18 18 18 17 17 15 14 13 13 12 12 11 11 10 11
7 8 10 9 8 7 5 4 3 4 5 3 3 5 6 6 7 7 6 6 5 5 5 6 8 9 11 11 11 11 11 11 12 12 12 14 14 14 15 16 16 16 16 16 15 15 15 14 14 13 13 11 10 12 13 15 15 13 12 14 18 20 19 20 20 20 20 nan nan nan 18 nan 19 19 18 18 17 16 14 13 12 11 11 10 9
8 10 9 10 9 7 5 5 4 4 3 3 3 5 5 6 6 3 4 3 3 4 5 6 6 7 9 10 10 11 12 12 13 13 14 15 15 15 16 17 18 18 18 18 17 17 16 15 15 13 13 12 11 12 14 16 16 18 17 16 17 17 19 18 20 21 nan nan nan nan nan nan nan 20 19 19 18 18 17 15 14 13 12 12 11
6 7 8 10 8 7 6 6 5 5 4 4 4 3 3 3 3 2 3 3 3 5 6 7 8 9 10 12 12 13 14 14 16 17 17 17 18 18 19 19 19 19 20 20 20 18 18 17 16 14 12 11 12 14 13 15 16 19 20 19 19 16 nan 18 17 19 nan nan nan nan nan nan nan 19 20 nan nan 18 18 17 17 15 15 15 14
5 6 7 8 6 9 8 7 6 6 6 6 6 5 5 4 5 8 8 8 8 8 10 10 11 11 11 13 14 17 18 19 20 20 20 20 20 20 20 20 20 21 21 20 18 17 16 15 15 14 14 12 13 14 15 16 17 18 19 22 23 22 19 17 16 19 nan nan nan nan nan nan nan nan 19 20 20 19 nan nan 18 18 17 16 16
6 6 7 8 8 8 8 9 8 8 8 9 10 9 8 8 9 10 10 10 11 13 13 13 14 15 14 15 18 20 21 22 23 23 22 22 22 22 22 21 21 20 20 18 16 16 16 16 16 15 15 16 14 15 15 16 16 19 20 19 19 19 21 20 18 21 nan nan nan nan nan nan nan nan nan nan nan nan nan nan nan nan nan nan nan
7 6 6 7 8 8 9 10 10 10 11 11 13 11 11 11 13 13 13 13 13 13 15 17 19 20 20 21 21 22 24 25 25 24 23 23 23 23 22 21 20 19 19 19 18 18 19 19 19 17 17 18 17 16 16 18 19 20 21 21 21 22 23 22 21 nan nan nan nan nan nan nan nan nan nan nan nan nan nan nan nan nan nan nan nan
9 9 8 7 8 9 9 10 11 12 13 13 15 14 13 14 15 16 16 17 17 18 20 20 21 23 24 24 25 26 28 27 25 25 24 23 22 22 22 21 20 21 22 21 20 19 20 21 22 20 18 18 17 16 17 19 20 22 22 23 23 21 21 22 21 nan nan nan nan nan nan nan nan nan nan nan nan nan nan nan nan nan nan nan nan
12 12 11 9 9 9 10 11 12 13 14 16 17 16 15 15 17 18 18 19 19 19 22 23 24 25 25 27 28 28 27 25 23 23 23 22 22 22 22 22 21 22 22 20 19 19 19 20 22 21 20 18 16 16 17 20 21 23 25 24 23 23 23 22 23 23 22 nan nan nan nan nan nan nan nan nan nan nan nan nan nan nan nan nan nan
15 15 14 12 10 11 12 13 13 14 15 17 18 19 18 17 19 20 21 22 22 22 23 24 25 25 25 26 25 25 24 23 22 21 22 22 22 22 22 23 22 22 19 17 17 17 17 17 18 19 19 20 18 18 17 20 21 23 24 26 25 24 23 23 22 22 23 24 nan nan nan nan nan nan nan nan nan nan nan nan nan nan nan nan nan
16 17 15 13 12 12 14 14 15 16 16 18 19 19 19 19 19 21 23 23 24 23 23 22 22 23 21 22 23 23 24 24 23 23 22 22 22 22 23 24 23 22 20 18 16 16 18 18 18 19 20 21 21 20 20 20 22 25 26 26 26 26 25 24 24 24 22 nan nan nan nan nan nan nan nan nan nan nan nan nan nan nan nan nan nan
Wind_Direction
107 102 97 79 67 63 64 73 72 73 66 58 48 52 56 54 56 64 68 63 63 65 65 66 65 64 65 70 72 77 78 77 79 77 75 73 70 54 38 28 16 359 308 283 275 269 264 271 288 280 213 191 184 171 172 185 181 177 167 149 134 133 132 116 101 92 85 105 118 128 135 144 143 138 134 133 130 131 129 129 123 124 139 166 175
97 95 92 76 58 58 60 71 68 67 59 58 52 53 55 56 56 61 67 68 67 67 68 70 74 75 76 80 81 83 85 86 85 83 82 81 81 70 45 35 25 357 288 267 262 261 273 314 347 337 254 207 202 195 182 187 179 182 186 162 147 135 134 133 127 117 134 153 154 148 138 135 138 141 139 134 127 127 129 133 123 126 149 177 198
97 92 87 68 54 43 46 56 59 59 52 52 54 57 61 65 66 64 62 60 61 65 63 70 78 83 87 92 95 92 91 90 86 87 88 92 95 84 55 35 20 350 293 279 277 275 293 4 16 355 203 193 190 190 188 187 167 160 190 186 163 149 140 141 144 132 143 153 159 158 152 139 138 150 148 138 133 130 130 123 136 140 157 178 198
94 92 79 55 42 40 37 51 62 59 58 57 57 55 59 63 64 66 64 63 62 66 71 77 84 91 97 102 99 97 97 91 88 88 94 100 95 77 54 36 9 314 295 299 295 298 301 64 135 174 190 188 187 182 182 186 169 153 160 183 180 169 154 144 143 152 145 154 153 142 132 130 129 153 152 146 144 144 135 128 133 170 181 177 214
87 80 65 53 45 38 39 48 58 59 63 59 57 52 54 56 55 59 64 70 72 70 74 84 91 94 98 93 95 98 99 99 96 101 101 97 92 86 84 94 228 263 282 284 292 341 69 111 187 206 190 191 189 189 184 183 173 164 164 170 180 180 181 173 166 151 144 146 153 134 136 139 136 157 156 161 164 159 155 144 146 162 197 132 202
77 75 61 53 45 43 41 46 53 54 51 57 57 50 50 54 48 53 61 67 70 70 75 82 87 85 81 76 84 94 98 101 104 104 97 97 103 123 147 166 201 229 249 256 262 66 96 130 172 218 212 202 197 194 190 191 185 172 164 167 170 183 205 196 172 152 140 136 138 131 137 143 146 147 176 177 181 176 169 168 162 166 175 204 212
69 88 69 58 64 59 52 45 65 56 51 55 57 51 53 53 50 51 57 55 50 44 50 55 63 67 68 70 82 88 89 90 88 84 88 94 124 149 166 187 201 226 242 244 252 76 85 108 163 214 225 211 207 199 195 196 190 178 175 172 163 179 189 194 161 151 127 110 122 128 133 146 152 147 212 198 190 183 180 180 176 178 182 195 187
77 69 65 73 72 59 51 49 74 91 53 50 51 65 46 48 55 56 65 46 31 25 26 31 39 47 54 58 65 68 67 65 69 76 89 120 145 154 172 190 216 234 240 239 116 81 78 94 132 198 234 220 213 204 195 195 193 180 175 169 180 199 181 175 175 149 108 97 115 121 131 136 147 144 207 220 204 192 181 181 183 182 189 196 198
59 60 68 75 73 39 39 28 42 70 85 44 64 49 43 33 43 54 38 48 23 15 19 21 26 35 33 37 40 44 47 50 61 77 103 132 141 145 140 148 167 257 252 245 89 94 109 124 147 175 218 249 235 215 198 186 178 166 162 160 192 217 187 179 170 132 106 98 103 110 115 121 125 137 189 183 216 195 178 173 182 190 193 199 201
62 63 66 76 73 57 40 18 23 40 60 39 41 67 53 19 14 22 12 30 18 10 9 11 16 19 21 25 30 37 44 51 63 89 132 130 106 105 108 83 52 28 8 38 71 101 120 146 173 192 197 233 230 209 195 184 170 156 150 150 179 183 187 176 169 153 125 98 92 93 105 123 109 121 167 119 187 182 159 147 172 183 189 199 190
64 65 66 62 48 45 35 20 27 12 33 13 29 56 33 14 6 6 6 15 9 4 7 12 15 17 21 22 30 37 47 61 68 55 29 15 31 38 44 41 37 22 7 18 84 107 129 145 176 198 198 214 234 204 187 188 173 152 149 149 151 157 151 171 171 162 144 120 100 84 72 80 98 118 147 122 111 142 147 145 157 182 200 198 189
57 68 66 61 38 31 26 20 19 357 334 333 12 41 21 0 9 2 4 11 12 12 16 21 22 20 19 22 28 33 39 44 32 19 4 9 15 23 29 31 27 355 259 222 183 154 157 161 190 202 212 214 209 179 188 192 175 153 153 158 141 141 137 160 170 173 161 154 127 99 83 70 72 112 117 112 125 122 140 121 134 165 186 193 186
35 51 61 62 38 30 24 15 8 358 349 351 1 15 9 12 6 1 11 18 20 25 29 34 33 29 23 22 21 20 22 30 25 2 352 0 1 6 7 16 259 229 247 240 213 198 182 180 187 208 212 217 204 171 191 200 173 170 172 171 153 143 134 148 167 185 190 193 165 131 99 68 67 209 110 88 111 126 117 130 149 154 170 178 188
29 39 50 50 51 22 16 7 3 1 1 2 355 358 359 9 8 15 22 24 30 33 37 38 38 34 28 22 21 17 19 15 10 357 356 346 344 335 291 233 216 222 231 241 239 218 192 184 186 197 219 207 184 165 157 241 197 167 167 169 161 157 154 149 164 190 209 199 201 181 181 111 59 182 115 35 82 121 164 181 151 127 155 174 178
13 19 28 38 28 18 3 1 354 360 2 6 6 360 355 9 23 24 27 31 36 37 38 38 38 35 30 24 24 22 28 23 19 4 357 329 302 249 236 204 213 217 249 235 220 210 195 188 187 212 238 150 153 156 171 181 258 187 176 168 163 163 166 167 178 196 197 206 200 201 202 187 233 112 106 40 48 84 184 127 95 124 143 162 177
343 351 3 16 9 7 1 352 355 1 5 13 13 11 9 17 31 34 32 35 36 37 36 36 36 35 28 23 20 25 34 35 29 26 25 17 320 238 87 88 140 92 36 72 170 183 191 189 180 231 242 73 199 156 162 171 201 244 185 180 168 163 167 169 189 196 190 192 202 196 197 206 245 180 89 45 26 46 162 162 145 132 122 156 174
333 341 345 354 356 354 348 359 359 1 1 13 27 33 32 30 33 34 34 34 33 33 32 32 34 34 30 24 23 30 38 39 37 39 46 41 44 113 119 128 131 71 46 64 91 107 144 132 169 250 192 117 246 142 156 154 180 207 196 180 178 169 166 171 197 204 198 194 198 202 202 187 259 203 121 41 33 53 317 222 241 115 141 134 154
326 330 328 333 331 341 347 2 11 19 24 33 41 59 42 42 33 32 29 29 26 26 28 30 35 36 35 30 32 41 48 52 55 60 61 56 70 99 116 126 119 74 45 47 63 64 70 339 200 271 295 60 301 345 122 115 148 201 182 193 197 185 179 178 201 215 206 196 202 210 207 217 228 224 175 47 12 37 314 303 287 90 65 109 145
310 314 312 316 324 341 1 29 34 45 40 65 60 56 41 38 34 30 27 25 24 26 28 32 35 39 42 41 41 47 56 63 70 71 73 73 75 80 81 88 76 67 61 59 49 70 78 103 250 271 308 59 304 297 129 108 111 146 205 206 207 204 195 202 213 217 217 204 208 210 216 230 212 228 232 268 331 21 307 313 319 56 72 126 143
308 324 320 330 355 15 40 47 51 59 75 69 62 48 40 39 37 36 32 30 29 31 34 36 35 39 43 45 47 52 53 58 65 66 63 69 68 78 78 74 73 73 69 69 75 88 125 183 266 291 333 7 345 353 358 4 47 68 291 248 216 212 229 229 216 220 229 226 214 213 235 226 217 217 239 257 275 250 275 303 305 274 86 72 135
26 6 360 23 19 27 39 59 58 66 64 58 56 50 44 39 40 39 39 35 35 35 39 39 40 40 43 44 47 53 53 56 56 63 62 59 70 68 74 78 79 81 82 84 85 91 137 211 262 296 327 17 340 347 346 319 302 284 266 250 248 261 239 232 228 234 240 245 241 229 232 226 220 220 228 253 256 250 254 287 311 312 3 8 21
30 39 35 39 44 55 56 65 79 74 72 65 62 54 48 46 46 44 43 41 35 37 40 46 45 48 44 48 50 50 51 53 58 65 66 66 65 71 80 85 87 91 94 93 86 99 118 199 274 295 323 346 347 348 329 322 307 290 286 280 291 273 259 243 238 240 239 253 256 248 244 233 229 227 226 253 251 247 253 274 300 313 314 323 351
35 50 59 56 75 78 70 67 79 71 60 56 57 52 45 52 49 50 49 42 39 39 42 42 49 49 49 50 51 52 52 54 57 62 69 74 74 77 82 88 94 97 94 94 83 85 82 66 347 327 339 350 5 7 2 353 336 321 326 316 296 288 271 253 246 247 244 242 253 260 240 226 227 227 225 233 255 254 267 286 296 300 306 313 322
37 50 68 92 88 86 67 73 69 56 50 55 53 50 49 48 52 51 50 48 44 43 42 42 47 49 49 50 52 51 53 54 54 58 65 65 66 68 77 85 86 84 91 82 76 52 68 31 7 3 5 12 15 15 16 11 4 350 334 321 307 290 278 259 248 242 245 256 260 250 235 227 223 226 230 229 245 261 264 275 273 276 299 307 313
54 68 82 84 71 63 66 70 67 57 49 51 51 48 47 49 52 53 52 51 50 47 46 43 44 45 48 50 51 52 55 59 57 60 63 66 72 76 76 79 82 81 78 74 69 62 59 50 32 16 13 17 17 18 21 22 20 12 358 334 316 290 286 273 253 248 256 268 270 256 243 231 225 231 232 228 247 260 267 265 270 266 258 293 302
72 75 70 65 58 60 60 67 62 58 53 50 48 43 42 47 47 51 50 50 50 49 50 48 46 47 50 51 54 57 63 67 67 67 69 72 75 76 76 76 79 77 69 71 68 64 61 48 36 25 19 17 15 18 22 29 34 34 28 18 1 332 300 281 265 258 266 271 270 267 265 255 243 231 235 235 238 258 265 273 268 256 250 253 283
77 79 76 75 64 65 61 61 58 57 50 50 49 45 44 45 45 46 48 48 49 50 52 53 54 53 56 59 62 65 70 74 74 75 76 77 78 75 74 72 75 75 72 73 73 67 62 53 40 32 26 22 16 19 22 26 34 43 41 36 32 22 5 335 306 287 277 277 278 280 273 269 262 239 235 258 266 267 264 268 260 254 242 231 239
80 75 83 82 77 64 59 54 56 51 51 50 48 44 43 44 44 43 46 47 50 53 56 58 61 63 65 68 69 74 74 75 78 80 80 79 78 78 74 72 73 73 71 71 72 68 61 52 47 43 38 32 30 30 31 30 34 36 45 40 37 33 28 19 355 330 320 319 311 305 289 281 272 259 249 271 282 289 282 275 268 254 246 230 215
89 86 96 95 85 79 57 50 52 51 56 52 51 49 44 45 44 47 47 44 50 58 63 63 64 68 69 69 69 72 72 75 77 79 79 78 78 75 73 70 68 69 67 66 65 65 61 56 51 51 45 42 44 42 46 43 38 32 36 38 35 30 26 24 15 358 338 331 329 317 315 298 271 260 259 282 298 301 294 279 271 261 251 243 225
95 97 95 100 100 85 62 54 53 54 54 53 54 49 45 44 42 46 48 48 54 61 67 69 69 70 71 68 68 71 74 74 77 78 76 77 75 73 70 68 66 62 62 63 60 61 62 58 54 49 45 40 41 39 48 48 43 37 34 36 34 30 25 24 21 14 356 341 335 329 324 315 299 274 262 287 307 315 310 289 276 269 259 257 245
109 94 97 104 103 84 72 63 55 50 48 50 50 50 46 46 45 47 50 55 61 69 74 73 75 75 74 69 68 71 78 82 83 82 79 76 75 73 69 63 63 60 58 57 51 54 53 49 48 47 42 39 35 34 40 42 38 34 31 34 34 34 32 28 30 25 20 358 346 341 337 337 322 306 285 278 296 315 317 305 293 287 279 267 252
97 89 100 104 92 76 71 61 55 48 47 48 44 44 43 46 49 52 54 57 59 66 72 75 75 77 78 77 73 76 77 81 78 77 74 72 71 69 64 62 61 56 52 54 52 48 48 41 37 34 34 33 30 27 25 26 25 21 22 22 27 32 32 30 32 29 30 22 11 359 354 347 338 317 299 289 277 296 314 311 309 300 297 294 278
112 95 97 94 79 78 78 65 58 50 44 46 42 39 35 36 42 48 55 58 60 64 68 71 74 75 75 72 70 70 73 76 73 68 68 67 66 63 62 55 50 45 42 43 43 40 39 34 28 25 25 21 19 13 10 9 6 5 10 3 14 19 21 21 21 23 25 23 12 10 5 0 349 327 311 295 290 281 302 308 308 306 308 309 295
117 117 97 87 91 100 92 80 58 50 44 45 41 35 27 27 39 49 53 59 58 61 64 66 68 71 70 66 63 64 69 73 71 68 64 61 60 57 50 47 39 34 33 29 34 31 27 25 19 18 12 11 4 358 357 354 351 354 353 354 4 5 9 9 7 10 12 12 8 9 7 8 5 352 331 314 303 298 290 304 296 302 313 316 302
123 110 77 76 76 87 93 82 58 50 44 43 34 32 21 22 39 53 56 54 56 60 62 57 58 63 62 58 54 50 48 52 54 50 50 52 54 51 45 35 23 27 24 15 17 16 15 12 6 9 4 360 356 351 349 349 346 343 342 347 354 357 358 358 1 4 0 358 3 357 359 5 6 7 357 342 328 326 316 296 284 288 307 316 305
82 84 79 77 69 71 64 65 51 49 48 44 34 28 21 25 58 60 63 58 56 58 59 54 52 53 51 48 44 44 39 35 32 30 33 37 39 35 29 13 14 19 11 4 7 9 5 0 356 359 355 350 350 351 345 343 342 338 338 341 344 347 346 348 354 352 346 355 352 350 351 353 1 6 9 5 355 339 325 317 290 273 278 301 312
59 53 47 54 64 56 54 56 54 46 48 41 34 37 32 51 65 60 59 56 48 41 43 53 60 49 48 43 38 37 36 30 29 26 24 26 24 19 11 359 2 8 10 8 358 356 356 353 350 344 343 344 346 349 339 336 337 337 336 335 331 333 333 337 342 342 344 346 347 343 342 340 348 359 6 8 9 4 349 338 321 300 290 289 300
43 36 27 21 35 43 51 55 59 44 31 33 31 42 47 59 65 59 57 54 46 33 357 324 27 39 51 53 46 42 36 32 31 27 21 16 17 14 357 354 357 356 355 351 347 341 344 349 347 338 340 340 338 336 334 332 338 337 333 331 325 326 327 331 334 337 336 337 338 338 335 332 333 336 348 356 1 3 2 349 342 332 314 302 301
33 20 8 359 345 1 34 47 47 42 21 21 28 49 61 71 83 69 63 55 40 31 18 31 48 51 53 54 47 40 37 33 29 22 12 8 12 6 360 351 349 345 340 342 343 340 339 337 338 335 337 331 322 323 328 330 335 336 332 326 324 324 324 326 327 325 326 327 329 335 332 326 323 322 324 330 338 346 351 354 353 337 317 301 291
15 358 354 345 341 328 322 340 30 31 25 23 32 49 66 66 67 70 68 64 53 46 41 28 41 50 47 39 35 30 24 20 19 11 13 10 6 2 347 350 343 342 340 343 337 334 333 333 332 332 335 328 319 319 326 328 331 335 327 325 322 322 321 320 320 320 321 321 322 327 326 323 319 316 315 318 321 322 328 331 336 338 333 307 288
6 348 341 344 342 332 323 352 5 21 23 24 38 46 49 49 63 64 65 57 51 42 49 44 32 31 26 21 19 14 9 7 8 5 2 357 3 352 337 336 333 332 338 338 335 330 328 328 325 323 323 317 315 318 325 326 327 329 323 319 318 321 319 319 318 317 316 nan nan 319 320 320 316 314 313 314 312 313 317 320 324 325 325 319 311
358 349 350 345 339 338 335 334 326 1 31 19 28 42 42 40 41 46 52 51 34 27 28 24 19 12 6 359 358 356 355 357 355 353 348 349 342 334 330 325 327 331 333 333 330 329 330 328 325 320 316 313 315 323 324 328 329 323 321 318 318 323 319 319 317 314 313 nan nan nan 315 nan 312 313 314 315 311 309 307 309 311 313 314 316 313
356 354 352 347 341 335 330 328 316 332 5 7 28 38 27 27 21 13 14 21 7 359 13 9 358 354 344 343 342 340 341 341 341 338 338 338 333 321 320 322 326 328 331 331 330 332 330 329 326 319 314 315 320 323 328 335 329 326 324 332 322 331 328 323 317 314 nan nan nan nan nan nan nan 313 315 314 310 307 303 300 298 299 300 302 303
348 350 350 353 338 331 329 329 321 326 321 328 350 356 342 329 334 335 327 347 334 341 342 333 334 337 335 331 333 335 336 334 332 332 328 327 318 317 317 321 325 326 330 332 333 333 328 324 322 321 317 314 318 318 320 327 333 331 330 325 321 328 nan 327 318 318 nan nan nan nan nan nan nan 310 312 nan nan 303 301 297 292 291 291 293 295
344 348 351 350 328 344 339 332 320 325 317 318 329 316 314 319 305 272 282 295 294 313 313 320 324 324 328 331 336 333 333 332 329 327 323 316 315 316 318 320 322 326 328 330 329 325 321 320 321 323 325 320 320 328 332 334 336 332 331 332 330 333 328 319 324 324 nan nan nan nan nan nan nan nan 306 304 302 299 nan nan 289 288 284 284 286
339 347 348 354 345 340 337 324 311 311 316 323 325 319 335 325 316 315 319 318 321 317 326 328 323 324 329 324 325 329 324 322 321 324 319 313 314 318 320 318 321 322 324 323 319 320 326 327 328 327 326 325 325 333 337 335 338 341 342 338 329 328 327 324 332 325 nan nan nan nan nan nan nan nan nan nan nan nan nan nan nan nan nan nan nan
328 322 332 346 347 338 332 323 314 308 311 315 322 328 332 326 335 335 333 331 329 325 316 307 309 310 313 317 319 321 323 320 318 318 317 316 315 320 320 319 318 320 321 322 322 329 330 331 325 326 324 321 328 336 336 335 337 342 341 340 336 333 329 330 327 nan nan nan nan nan nan nan nan nan nan nan nan nan nan nan nan nan nan nan nan
317 311 315 320 331 330 321 317 304 303 303 305 318 331 330 326 330 333 324 320 316 311 308 307 304 302 306 311 312 315 316 320 316 315 317 318 320 316 318 319 322 323 323 324 327 330 330 327 323 318 316 321 328 332 331 332 340 337 339 336 333 327 327 325 323 nan nan nan nan nan nan nan nan nan nan nan nan nan nan nan nan nan nan nan nan
308 301 303 307 315 320 315 307 303 301 300 309 310 324 325 327 327 326 323 311 312 307 303 301 301 304 312 310 311 314 315 320 320 316 318 319 315 317 322 324 324 323 322 322 325 327 330 325 319 317 316 317 322 322 327 330 333 332 332 328 328 329 329 327 319 321 319 nan nan nan nan nan nan nan nan nan nan nan nan nan nan nan nan nan nan
306 299 302 303 308 304 306 305 308 300 301 309 309 317 328 322 324 319 319 313 308 305 303 304 306 312 317 319 317 319 321 322 321 319 318 319 320 324 323 323 321 320 320 321 320 322 322 322 318 314 313 314 316 322 326 324 327 324 325 324 326 326 327 327 325 322 320 321 nan nan nan nan nan nan nan nan nan nan nan nan nan nan nan nan nan
298 301 303 302 301 301 303 310 313 302 305 310 313 321 322 322 324 321 323 321 318 317 315 318 314 326 329 331 331 330 329 328 325 319 322 322 325 324 320 318 317 315 315 313 315 318 318 318 316 314 314 317 317 321 323 324 323 320 321 323 324 327 328 328 326 324 322 nan nan nan nan nan nan nan nan nan nan nan nan nan nan nan nan nan nan